Weather in Pogost

Russia / Ivanovo Oblast     57°13′04″N   41°14′21″E
temp.,
°C
wind,
m/s
gust,
m/s
humid.,
%
clouds,
%
prec.,
mm/h
press.,
hPa
HPBL,
m
28 september, tue
tue2800:00+5ene5987100 0.1 1027650
03:00+5ne499136 0.1 1028519
06:00+2ne499731 0.0 1030285
09:00+5ene47812 0.0 1031421
12:00+9ene456190 0.0 1032879
15:00+10ne34525 0.0 10321074
18:00+6nne226956 0.0 103318
21:00+4nne33795 0.0 103438
29 september, wed
wed2900:00+3nne22825 0.0 103422
03:00+2n22875 0.0 103529
06:00+2n33925 0.0 103554
09:00+6n34755 0.0 1035287
12:00+10nne336554 0.0 1035918
15:00+11n236051 0.0 10341039
18:00+9n2375100 0.0 103453
21:00+8nnw2276100 0.0 103432
30 september, thu
thu3000:00+8nw2378100 0.0 103455
03:00+8nw2483100 0.0 1034122
06:00+8nw258699 0.0 1034173
09:00+9nw2585100 0.0 1034227
12:00+12nw337342 0.0 1034514
15:00+13nw346728 0.0 1033836
18:00+10wnw228411 0.0 103318
21:00+9nw34915 0.0 103348
1 october, fri
fri100:00+8nw35955 0.0 103478
03:00+7nw34955 0.0 103474
06:00+6nw34955 0.0 103481
09:00+10nw34805 0.0 1034251
12:00+13nw34665 0.0 1033689
15:00+14wnw34625 0.0 1033895
18:00+10wnw227951 0.0 103220
21:00+8w33865 0.0 103330
2 october, sat
sat200:00+7wnw228978 0.0 103328
03:00+6w229234 0.0 103325
06:00+5wsw229249 0.0 103325
09:00+9wsw237645 0.0 1033231
12:00+13wsw33615 0.0 1033795
15:00+14wsw335849 0.0 10321052
18:00+10ssw22785 0.0 103219
21:00+8ssw34865 0.0 103252